Preview of NWS' New Version of Forecast
This preview is not operational and should not be used for support decisions.

Regional Weather Roundup (RWR)

Issued by National Weather Service (NWS)

                            
000
ASUS45 KBOU 181910
RWRCO 

WEATHER ROUNDUP FOR COLORADO
NATIONAL WEATHER SERVICE DENVER/BOULDER CO
100 PM MDT SAT MAY 18 2019

NOTE: "FAIR" INDICATES FEW OR NO CLOUDS BELOW 12000 FEET WITH NO
SIGNIFICANT WEATHER AND/OR OBSTRUCTIONS TO VISIBILITY.

COZ001>005-013-030-031-182000-
...NORTHWEST COLORADO...
  
CITY           SKY/WX    TMP DP  RH WIND       PRES   REMARKS
CRAIG          PTSUNNY   50  31  48 W6        29.90F                  
HAYDEN         CLOUDY    48  30  49 W10       29.91F                  
MEEKER         FAIR      46  32  58 SW6       29.91R                  
RANGELY        FAIR      58  29  33 W8G21     29.89S                  
RABBIT EARS PA NOT AVBL                                               
STEAMBOAT SPGS CLOUDY    45  31  57 W6        29.90F                  
WALDEN         PTSUNNY   43  19  39 W6        29.88S                  
$$

COZ006>008-011-182000-
...WEST CENTRAL VALLEYS...
  
CITY           SKY/WX    TMP DP  RH WIND       PRES   REMARKS
GRAND JUNCTION PTSUNNY   59  31  34 W6        29.89F                  
MONTROSE       CLOUDY    51  32  48 MISG      29.95F                  
EAGLE          PTSUNNY   48  28  46 N13G20    29.91F                  
RIFLE          CLOUDY    50  34  54 NE5       29.92R                  
DELTA          PTSUNNY   56  37  48 W6        29.93S                  
NUCLA          PTSUNNY   52  32  46 SE6       29.98F                  
$$

COZ017>023-064>068-182000-
...SOUTHWEST COLORADO...
  
CITY           SKY/WX    TMP DP  RH WIND       PRES   REMARKS
DURANGO        FAIR      54  32  43 W21G30    29.91F                  
CORTEZ         FAIR      57  28  33 SW10G18   29.95S                  
PAGOSA SPRINGS CLOUDY    46  29  49 W12       29.94F                  
TELLURIDE      CLOUDY    36  28  75 W7        30.03R                  
WOLF CREEK PAS CLOUDY    25  25 100 SW10G16   30.04S WCI  15          
$$

COZ009-010-012-014-032>034-037-058>063-182000-
...CENTRAL COLORADO...
  
CITY           SKY/WX    TMP DP  RH WIND       PRES   REMARKS
ASPEN          LGT RAIN  42  26  53 W21G29    29.91F                  
BUENA VISTA    FAIR      50  19  28 NW15G24   29.84S                  
COPPER MTN     PTSUNNY   32  19  59 MISG      29.95R HAZE             
BERTHOUD PASS  CLOUDY    19   9  63 NW29G41   29.91S WCI   1          
COTTONWOOD PAS FAIR      41  18  38 W13G33    29.89R                  
GUNNISON       FAIR      44  27  51 SW17G26   29.92R                  
GRANBY         NOT AVBL                                               
KREMMLING      PTSUNNY   45  27  49 NW10G20   29.90F                  
LEADVILLE      FAIR      34  25  69 NW8G17    29.91S WCI  27          
MONARCH PASS   CLOUDY    23  21  93 W30G39    30.04S WCI   5          
SALIDA         FAIR      50  28  42 W25G33    29.92S                  
SUNLIGHT       SNOW      27  25  93 W6        30.02S VSB 1/4 WCI  20  
WILKERSON PASS CLOUDY    34  14  44 N8        29.92S WCI  27          
$$

COZ069>075-182000-
...SAN LUIS VALLEY/SANGRE DE CRISTO MOUNTAINS...
  
CITY           SKY/WX    TMP DP  RH WIND       PRES   REMARKS
ALAMOSA        PTSUNNY   50  20  30 W6G17     29.85S                  
DEL NORTE      PTSUNNY   52  16  24 W17G25    29.86S                  
LA VETA PASS   NOT AVBL                                               
SAGUACHE       FAIR      50  23  34 NW16G26   29.88R                  
$$

COZ035-036-038>040-182000-
...NORTHERN COLORADO FRONT RANGE...
  
CITY           SKY/WX    TMP DP  RH WIND       PRES   REMARKS
DENVER INTL AP PTSUNNY   57  29  34 N7        29.77R                  
AURORA         PTSUNNY   51  30  44 SW6       29.78R                  
FRONT RANGE AP PTSUNNY   57  32  38 CALM      29.77R                  
ERIE MUNI ARPT PTSUNNY   58  26  29 CALM      29.80S                  
BOULDER MUN AP CLOUDY    57  30  35 N9        29.75R                  
CENTENNIAL     PTSUNNY   46  35  65 NE6       29.78F                  
BROOMFIELD     PTSUNNY   55  28  35 E12       29.77S                  
FORT COLLINS   FAIR      62  30  29 W12       29.74S                  
LONGMONT       LGT RAIN  58  31  36 NE7       29.78R                  
$$

COZ041-046-047-076>085-087-088-182000-
...PIKES PEAK/PALMER DIVIDE AND SOUTHERN FOOTHILLS...
  
CITY           SKY/WX    TMP DP  RH WIND       PRES   REMARKS
COLO. SPRINGS  CLOUDY    51  25  36 NE23      29.77R                  
A. F. ACADEMY  NOT AVBL                                               
SCHRIEVER AFB  NOT AVBL                                               
CHEYENNE MTN   NOT AVBL                                               
ELLICOTT       TSTM     N/A N/A N/A N25G38    29.76R                  
FALCON         CLOUDY    43  28  55 NE15G22   29.79R                  
FORT CARSON    NOT AVBL                                               
LIMON          LGT RAIN  48  41  76 N16       29.73R                  
MONUMENT HILL  CLOUDY    43  27  52 E7G23     29.81R                  
CANON CITY     FAIR      59  27  29 NW35G41   29.71S                  
WALSENBURG     NOT AVBL                                               
TRINIDAD       PTSUNNY   63  21  20 NW15G29   29.72F                  
$$

COZ042>045-048>051-090-091-182000-
...NORTHEAST COLORADO...
  
CITY           SKY/WX    TMP DP  RH WIND       PRES   REMARKS
GREELEY ARPT   FAIR      62  28  27 W8G16     29.74S                  
AKRON          PTSUNNY   61  34  36 N20G32    29.70F                  
BURLINGTON     FAIR      64  35  34 N13G26    29.68F                  
WRAY           PTSUNNY   68  36  30 N15       29.67S                  
YUMA           MOCLDY    63  21  20 NW16G23   29.68F                  
STERLING       CLOUDY    63  39  42 N14G23    29.68F                  
HOLYOKE        FAIR      66  43  42 N14G22    29.68F                  
FORT MORGAN    LGT RAIN  60  26  27 N15       29.72S                  
$$

COZ086-089-092>099-182000-
...SOUTHEAST COLORADO...
  
CITY           SKY/WX    TMP DP  RH WIND       PRES   REMARKS
PUEBLO         PTSUNNY   57  30  35 NE26G45   29.69R                  
LA JUNTA       FAIR      68  21  16 VRB5      29.65F                  
LAMAR          FAIR      73  26  17 W7        29.62F                  
SPRINGFIELD      N/A     65  32  29 NE3       29.63F                  
$$